Location: Hermaringen
(48.5952°N, 10.2585°E)
Time: 20:25:10
(UTC+00:00)

Cosmos 1190 Rocket - Pass Details

Date: 18 November 2025
Orbit: 752 x 775 km, 74.1° (Epoch: 10 December)

Event Time Altitude Azimuth Distance (km) Brightness Sun altitude
Rises 17:54:22 0° 212° (SSW) 3,241 7.7 -22.6°
Reaches altitude 10° 17:56:46 10° 215° (SW) 2,319 7.0 -23.0°
Maximum altitude 18:01:59 61° 296° (WNW) 878 4.4 -23.9°
Enters shadow 18:05:25 22° 12° (NNE) 1,667 5.6 -24.4°
